Location: Hope
(40.9110°N, 74.9680°W)
Time: 16:37:01
(UTC-04:00)

EO-88 - Visible Passes

Search period start: 23 July 2021 00:00
Search period end: 02 August 2021 00:00
Orbit: 477 x 484 km, 97.3° (Epoch: 23 July)

Date Brightness Start Highest point End Pass type
(mag) Time Alt. Az. Time Alt. Az. Time Alt. Az.
23 Jul ? 22:28:16 60° SE 22:28:48 75° ENE 22:32:22 10° N visible
24 Jul ? 22:02:29 29° E 22:03:18 33° ENE 22:06:33 10° N visible
24 Jul ? 23:36:46 14° W 23:36:47 14° W 23:38:40 10° WNW visible
25 Jul ? 21:36:42 15° E 21:37:54 17° ENE 21:40:14 10° NNE visible
25 Jul ? 23:10:59 28° W 23:11:02 28° W 23:14:10 10° NW visible
26 Jul ? 22:45:11 61° WSW 22:45:23 63° W 22:48:56 10° NNW visible
27 Jul ? 22:19:23 51° ESE 22:19:48 56° ENE 22:23:19 10° N visible
28 Jul ? 21:53:35 24° E 21:54:19 26° ENE 21:57:20 10° NNE visible
28 Jul ? 23:27:52 18° W 23:27:52 18° W 23:30:10 10° NW visible
29 Jul ? 21:27:47 12° E 21:28:54 13° ENE 21:30:42 10° NE visible
29 Jul ? 23:02:04 36° W 23:02:04 36° W 23:05:17 10° NNW visible
30 Jul ? 22:36:15 85° SW 22:36:17 85° WSW 22:39:53 10° NNW visible
31 Jul ? 22:10:26 41° E 22:10:43 42° ENE 22:14:07 10° N visible
31 Jul ? 23:44:43 11° W 23:44:43 11° W 23:45:21 10° WNW visible
01 Aug ? 21:44:37 20° E 21:45:14 20° ENE 21:47:57 10° NNE visible
01 Aug ? 23:18:53 22° W 23:18:53 22° W 23:21:22 10° NW visible
